This demonstration page uses our WeatherBlox Daily Observations layout. Learn more.

Left ArrowRight Arrow

38.80484, -77.04692

Hourly Observations for September 5, 2021

Temp ( °F °C ) Dew Point ( °F °C ) Humidity (%) Winds ( mph kmh ) Pressure ( in mb ) Visibility ( mi km ) Precip ( " mm )
12:52 am 00:52 Partly Cloudy 69 20.6 63 17.2 81 81 SSE 5 7 29.93 1014 10 16 N/A
1:52 am 01:52 Partly Cloudy 69 20.6 63 17.2 81 81 S 7 11 29.92 1013 10 16 N/A
2:52 am 02:52 Mostly Cloudy 69 20.6 63 17.2 81 81 S 9 15 29.91 1013 10 16 N/A
3:52 am 03:52 Mostly Cloudy 69 20.6 62 16.7 78 78 S 10 17 29.90 1013 10 16 N/A
4:52 am 04:52 Cloudy 70 21.1 62 16.7 76 76 S 10 17 29.88 1012 10 16 N/A
5:52 am 05:52 Cloudy 69 20.6 60 15.6 73 73 S 10 17 29.87 1011 10 16 N/A
6:52 am 06:52 Cloudy 69 20.6 60 15.6 73 73 S 8 13 29.88 1012 10 16 N/A
7:52 am 07:52 Cloudy 70 21.1 61 16.1 73 73 S 8 13 29.88 1012 10 16 N/A
8:52 am 08:52 Mostly Cloudy 71 21.7 62 16.7 73 73 S 7 11 29.88 1012 10 16 N/A
9:52 am 09:52 Mostly Cloudy 73 22.8 63 17.2 71 71 S 8 13 29.88 1012 10 16 N/A
10:52 am 10:52 Mostly Cloudy 75 23.9 64 17.8 69 69 VRB 7 11 29.88 1012 10 16 N/A
11:52 am 11:52 Mostly Cloudy 76 24.4 65 18.3 69 69 S 9 15 29.88 1012 10 16 N/A
12:52 pm 12:52 Mostly Cloudy 76 24.4 65 18.3 69 69 SSE 8 13 29.86 1011 10 16 N/A
1:52 pm 13:52 Mostly Cloudy 77 25 66 18.9 69 69 S 9 15 29.85 1011 10 16 N/A
2:52 pm 14:52 Cloudy with Light Rain 76 24.4 67 19.4 74 74 SW 8 13 29.83 1010 10 16 0.00 0.00
3:52 pm 15:52 Cloudy 77 25 67 19.4 71 71 SW 5 7 29.83 1010 10 16 0.00 0.00
4:52 pm 16:52 Cloudy 77 25 67 19.4 71 71 SSW 6 9 29.83 1010 10 16 N/A
5:52 pm 17:52 Cloudy 76 24.4 68 20 77 77 S 3 6 29.83 1010 10 16 0.00 0.00
6:52 pm 18:52 Cloudy 76 24.4 68 20 77 77 N N/A 29.83 1010 10 16 N/A
7:52 pm 19:52 Cloudy 76 24.4 67 19.4 74 74 SSE 3 6 29.82 1010 10 16 N/A
8:52 pm 20:52 Cloudy 76 24.4 68 20 77 77 S 6 9 29.84 1010 10 16 N/A
9:52 pm 21:52 Cloudy with Light Rain 75 23.9 69 20.6 82 82 SSE 3 6 29.83 1010 10 16 0.00 0.00
10:52 pm 22:52 Cloudy 75 23.9 66 18.9 74 74 VRB 5 7 29.83 1010 10 16 0.00 0.00
11:52 pm 23:52 Cloudy 74 23.3 67 19.4 79 79 S 3 6 29.85 1011 10 16 N/A

Powered by AerisWeather